Weather History for Elizabeth City, NC

Change the Weather History Date:

Tuesday, October 9, 2012

  Actual Average Record
Temperature  
Mean Temperature 64 °F 65 °F  
Max Temperature 66 °F 74 °F 94 °F (2007)
Min Temperature 61 °F 55 °F 37 °F (1988)
Degree Days  
Heating Degree Days 1 3  
Month to date heating degree days 4 20  
Since 1 July heating degree days 6 32  
Cooling Degree Days 0 2  
Month to date cooling degree days 68 29  
Year to date cooling degree days 2200 1551  
Growing Degree Days 13 (Base 50)    
Moisture  
Dew Point 59 °F    
Average Humidity 84    
Maximum Humidity 90    
Minimum Humidity 78    
Precipitation  
Precipitation 0.01 in 0.10 in 3.33 in (2013)
Month to date precipitation 1.77 0.98  
Year to date precipitation 39.90 38.87  
Snow  
Snow 0.00 in - 0.00 in (2002)
Month to date snowfall 0.0  
Since 1 July snowfall 0.0  
Snow Depth 0.00 in    
Sea Level Pressure  
Sea Level Pressure 30.06 in    
Wind  
Wind Speed 9 mph (NNW)    
Max Wind Speed 16 mph    
Max Gust Speed 20 mph    
Visibility 7 miles    
Events Rain    
T = Trace of Precipitation, MM = Missing Value Source: NWS Daily Summary

Daily Weather History Graph

Daily Weather History Graph

Search for Another Location

Airport:

Trip Planner

Search our weather history database for the weather conditions in past years. The results will help you decide how hot, cold, wet, or windy it might be!

Date:

Astronomy

Oct. 09, 2012 Rise Set
Actual Time 7:06 AM EDT 6:36 PM EDT
Civil Twilight 6:41 AM EDT 7:01 PM EDT
Nautical Twilight 6:11 AM EDT 7:31 PM EDT
Astronomical Twilight 5:41 AM EDT 8:01 PM EDT
Moon 12:51 AM EDT (10/9) 2:52 PM EDT (10/9)
Length of Visible Light 12h 20m
Length of Day
11h 29m
Last Quarter, 37% of the Moon is Illuminated
Oct 9
Last Quarter
Oct 15
New
Oct 21
First Quarter
Oct 29
Full
Nov 6
Last Quarter

Hourly Weather History & Observations

Time (EDT) Temp. Dew Point Humidity Pressure Visibility Wind Dir Wind Speed Gust Speed Precip Events Conditions
12:54 AM 60.1 °F 55.9 °F 86% 30.06 in 6.0 mi North 12.7 mph - N/A   Overcast
1:54 AM 61.0 °F 57.0 °F 87% 30.06 in 9.0 mi NNW 9.2 mph - N/A   Overcast
2:54 AM 62.1 °F 57.9 °F 86% 30.06 in 10.0 mi North 6.9 mph - N/A   Overcast
3:54 AM 63.0 °F 57.9 °F 84% 30.05 in 7.0 mi NNW 9.2 mph - 0.00 in Rain Light Rain
4:54 AM 63.0 °F 59.0 °F 87% 30.04 in 7.0 mi NNW 11.5 mph - 0.00 in Rain Light Rain
5:54 AM 63.0 °F 59.0 °F 87% 30.04 in 10.0 mi NNW 11.5 mph - 0.01 in   Overcast
6:54 AM 62.1 °F 57.9 °F 86% 30.05 in 9.0 mi NW 8.1 mph - 0.00 in   Overcast
7:19 AM 62.6 °F 57.2 °F 82% 30.06 in 8.0 mi NW 8.1 mph - N/A   Overcast
7:54 AM 62.1 °F 57.9 °F 86% 30.07 in 4.0 mi NW 8.1 mph - N/A   Overcast
8:54 AM 62.1 °F 57.9 °F 86% 30.09 in 2.5 mi NW 9.2 mph - 0.00 in   Overcast
9:54 AM 63.0 °F 59.0 °F 87% 30.09 in 2.0 mi NNW 11.5 mph - N/A   Overcast
10:50 AM 64.4 °F 60.8 °F 88% 30.09 in 2.0 mi North 12.7 mph - N/A   Overcast
10:54 AM 64.0 °F 60.1 °F 87% 30.09 in 2.0 mi North 15.0 mph - N/A   Overcast
11:54 AM 64.9 °F 60.1 °F 84% 30.08 in 4.0 mi North 12.7 mph - N/A   Haze
12:54 PM 64.9 °F 59.0 °F 81% 30.07 in 7.0 mi North 12.7 mph - N/A   Overcast
1:54 PM 64.9 °F 59.0 °F 81% 30.05 in 10.0 mi North 9.2 mph - N/A   Overcast
2:54 PM 66.0 °F 60.1 °F 81% 30.05 in 10.0 mi North 8.1 mph - N/A   Overcast
3:54 PM 66.0 °F 59.0 °F 78% 30.05 in 10.0 mi North 8.1 mph - N/A   Overcast
4:54 PM 64.9 °F 59.0 °F 81% 30.05 in 10.0 mi North 9.2 mph - N/A   Overcast
5:54 PM 64.9 °F 60.1 °F 84% 30.04 in 10.0 mi North 9.2 mph - N/A   Overcast
6:54 PM 64.9 °F 60.1 °F 84% 30.04 in 10.0 mi NNW 10.4 mph - N/A   Overcast
7:30 PM 64.4 °F 60.8 °F 88% 30.04 in 6.0 mi NNW 8.1 mph - N/A   Haze
7:54 PM 64.0 °F 60.1 °F 87% 30.05 in 7.0 mi NNW 8.1 mph - N/A   Overcast
8:54 PM 64.0 °F 60.1 °F 87% 30.06 in 8.0 mi WNW 4.6 mph - N/A   Overcast
9:54 PM 63.0 °F 59.0 °F 87% 30.06 in 7.0 mi WNW 6.9 mph - N/A   Overcast
10:54 PM 63.0 °F 59.0 °F 87% 30.05 in 5.0 mi WNW 5.8 mph - N/A   Overcast
11:54 PM 63.0 °F 59.0 °F 87% 30.04 in 4.0 mi NW 3.5 mph - N/A   Overcast